FW3835 Weather Reports


Display with metric or nautical units.
time (UTC)temp
F
wind
direction
speed
MPH
gust
MPH
rain 1hr
in
rain 24hr
in
rain mn
in
humidity
%
barometer
mb
20260505224516 38 277 3.0 13.0 0.00 0.00 0.00 44 1011.7
20260505223023 38 288 3.0 17.0 0.00 0.00 0.00 44 1011.6
20260505221527 37 296 5.0 12.0 0.00 0.00 0.00 43 1011.7
20260505220030 37 290 4.0 18.0 0.00 0.00 0.00 43 1011.7
20260505214533 38 311 6.0 16.0 0.00 0.00 0.00 43 1011.7
20260505213019 38 355 3.0 10.0 0.00 0.00 0.00 42 1011.7
20260505211524 37 277 3.0 13.0 0.00 0.00 0.00 43 1011.7
20260505210024 37 260 6.0 13.0 0.00 0.00 0.00 44 1011.7
20260505204532 37 298 3.0 10.0 0.00 0.00 0.00 44 1011.7
20260505203033 36 296 3.0 14.0 0.00 0.00 0.00 44 1011.7
20260505201521 36 325 3.0 14.0 0.00 0.00 0.00 45 1011.7
20260505200004 35 291 6.0 15.0 0.00 0.00 0.00 45 1011.7
20260505194508 35 314 5.0 11.0 0.00 0.00 0.00 47 1011.7
20260505193006 34 295 7.0 15.0 0.00 0.00 0.00 48 1011.6
20260505191508 34 295 3.0 14.0 0.00 0.00 0.00 49 1011.7
20260505190008 34 301 5.0 11.0 0.00 0.00 0.00 47 1011.6
20260505184506 34 319 3.0 9.0 0.00 0.00 0.00 49 1011.5
20260505183013 33 313 4.0 13.0 0.00 0.00 0.00 49 1011.4
20260505181509 33 269 3.0 12.0 0.00 0.00 0.00 49 1011.3
20260505180012 33 257 3.0 11.0 0.00 0.00 0.00 48 1011.2
20260505174511 33 310 5.0 12.0 0.00 0.00 0.00 47 1011.0
20260505173005 33 302 3.0 10.0 0.00 0.00 0.00 49 1011.0
20260505171510 33 303 6.0 13.0 0.00 0.00 0.00 49 1010.9
20260505170016 33 298 3.0 14.0 0.00 0.00 0.00 51 1010.6
20260505164513 32 317 6.0 13.0 0.00 0.00 0.00 51 1010.6
20260505163012 32 352 3.0 11.0 0.00 0.00 0.00 53 1010.4
20260505161508 32 281 3.0 16.0 0.00 0.00 0.00 58 1010.2
20260505153018 31 329 4.0 11.0 0.00 0.00 0.00 55 1009.9
20260505151519 32 300 3.0 10.0 0.00 0.00 0.00 55 1009.8
20260505124520 29 312 4.0 15.0 0.00 0.00 0.00 59 1008.5
20260505123021 29 302 3.0 11.0 0.00 0.00 0.00 60 1008.3
20260505121516 29 282 5.0 13.0 0.00 0.00 0.00 60 1008.2
20260505120033 29 298 4.0 11.0 0.00 0.00 0.00 60 1008.2
20260505114520 29 289 2.0 9.0 0.00 0.00 0.00 60 1008.1
20260505113020 29 298 1.0 10.0 0.00 0.00 0.00 59 1007.9
20260505111530 29 295 3.0 12.0 0.00 0.00 0.00 59 1007.7
20260505101508 29 286 2.0 10.0 0.00 0.00 0.00 57 1007.4
20260505100014 29 291 2.0 10.0 0.00 0.00 0.00 58 1007.4
20260505094519 30 302 4.0 11.0 0.00 0.00 0.00 57 1007.3
20260505093021 30 290 3.0 10.0 0.00 0.00 0.00 56 1007.3
20260505091528 30 268 3.0 11.0 0.00 0.01 0.00 55 1007.3
20260505090008 30 304 3.0 11.0 0.00 0.01 0.00 57 1007.2
20260505084516 30 290 3.0 10.0 0.00 0.01 0.00 57 1007.1
20260505083033 30 254 2.0 9.0 0.00 0.04 0.00 58 1007.1
20260505081527 29 286 1.0 6.0 0.00 0.06 0.00 58 1007.0
20260505080039 29 299 1.0 5.0 0.00 0.06 0.00 57 1006.9
20260505074510 29 301 1.0 7.0 0.00 0.06 0.00 58 1006.9
20260505073029 29 298 2.0 8.0 0.00 0.06 0.00 58 1006.9
20260505071528 28 282 1.0 8.0 0.00 0.06 0.00 59 1006.9
20260505070034 28 295 1.0 8.0 0.00 0.06 0.00 60 1006.9
20260505064524 27 288 0.0 3.0 0.00 0.06 0.00 62 1006.9
20260505063036 27 288 1.0 6.0 0.00 0.06 0.00 61 1006.9
20260505061526 27 298 1.0 4.0 0.00 0.06 0.00 61 1006.8
20260505060045 28 308 2.0 7.0 0.00 0.06 0.00 60 1006.8
20260505054524 28 306 1.0 5.0 0.00 0.06 0.00 60 1006.7
20260505053028 28 310 1.0 6.0 0.00 0.06 0.00 62 1006.7
20260505051526 28 231 1.0 5.0 0.00 0.06 0.00 63 1006.6
20260505041529 30 297 1.0 5.0 0.00 0.06 0.06 62 1006.4
20260505040030 31 294 1.0 8.0 0.00 0.06 0.06 60 1006.4
20260505034518 32 302 3.0 8.0 0.00 0.06 0.06 59 1006.3
20260505033022 33 240 2.0 10.0 0.00 0.06 0.06 58 1006.1
20260505031526 33 270 2.0 10.0 0.00 0.06 0.06 58 1006.0
20260505030025 34 287 2.0 9.0 0.00 0.06 0.06 57 1006.0
20260505024527 35 276 2.0 11.0 0.00 0.06 0.06 56 1005.9
20260505023023 35 280 2.0 11.0 0.00 0.06 0.06 54 1005.7
20260505021504 36 254 3.0 13.0 0.00 0.06 0.06 52 1005.4
20260505020008 37 290 5.0 12.0 0.00 0.06 0.06 50 1005.2
20260505014522 38 291 4.0 16.0 0.00 0.06 0.06 49 1004.9
20260505013015 38 240 6.0 16.0 0.00 0.06 0.06 48 1004.7
20260505011526 39 284 5.0 14.0 0.00 0.06 0.06 42 1004.5
20260505010022 39 360 4.0 18.0 0.00 0.06 0.06 42 1004.2
20260505004509 39 298 3.0 12.0 0.00 0.06 0.06 44 1004.0
20260505003010 40 276 6.0 14.0 0.00 0.06 0.06 41 1003.9
20260505001515 40 294 7.0 15.0 0.00 0.06 0.06 41 1003.8
20260505000026 41 311 5.0 14.0 0.00 0.06 0.06 40 1003.5
20260504234522 42 294 4.0 11.0 0.00 0.06 0.06 39 1003.4
20260504233013 41 297 3.0 15.0 0.00 0.06 0.06 40 1003.3
20260504231512 42 347 7.0 16.0 0.00 0.06 0.06 38 1003.3
20260504230020 44 267 4.0 17.0 0.00 0.06 0.06 36 1003.0